Miscellaneous Local Product
Issued by NWS Hastings, NE

Home | Current Version | Previous Version | Graphics & Text | Print | Product List | Glossary On
Versions: 1 2 3 4 5 6 7 8 9 10 11 12 13 14 15 16 17 18 19 20 21 22 23 24 25 26 27 28 29 30 31 32 33 34 35 36 37 38 39 40 41 42 43 44 45 46 47 48 49 50
000
AXUS43 KGID 261602
MISGRI

GID CWA HOURLY WEATHER ROUNDUP
NATIONAL WEATHER SERVICE HASTINGS NE
1000 AM CST WED NOV 26 2014

NOTE: "FAIR" INDICATES FEW OR NO CLOUDS BELOW 12,000 FEET WITH NO
SIGNIFICANT WEATHER AND/OR OBSTRUCTIONS TO VISIBILITY.

...SOUTH CENTRAL NEBRASKA...

CITY           SKY/WX    TMP DP  RH WIND       PRES   REMARKS
GRAND ISLAND   CLOUDY    27  20  75 N28G36    30.17R WCI  11
HASTINGS       CLOUDY    29  20  69 N31G38    30.15R WCI  13
KEARNEY        CLOUDY    28  19  69 NW35G40   30.19R WCI  12
ORD            CLOUDY    25  18  74 N22G32    30.20R WCI  10
YORK           CLOUDY    28  23  80 N22G36    30.10R WCI  15
AURORA         CLOUDY    29  22  75 NW30G37   30.12R WCI  13
LEXINGTON      PTSUNNY   32  22  67 N25G36    30.21R WCI  18
HOLDREGE       CLOUDY    31  20  65 N26G36    30.19R WCI  17
HEBRON         CLOUDY    33  24  69 NW17G29   30.12R WCI  22

...NEBRASKA PANHANDLE...

CITY           SKY/WX    TMP DP  RH WIND       PRES   REMARKS
CHADRON        CLOUDY    33  21  61 CALM      30.26R
ALLIANCE       CLOUDY    26  21  81 NE3       30.22R
SCOTTSBLUFF    MIX PCPN  29  26  89 W7        30.23R WCI  22
SIDNEY         LGT SNOW  28  25  88 NW13      30.23R FOG     WCI  17

...WESTERN AND NORTH CENTRAL NEBRASKA...

CITY           SKY/WX    TMP DP  RH WIND       PRES   REMARKS
VALENTINE      CLOUDY    23  17  78 N10G22    30.28R WCI  12
AINSWORTH      CLOUDY    21  18  86 NW14G21   30.26R WCI   8
ONEILL         CLOUDY    23  21  92 N24G32    30.21R WCI   7
BROKEN BOW     CLOUDY    27  19  72 N28G36    30.21R WCI  11
IMPERIAL       CLOUDY    31  19  61 N15       30.25R WCI  20
NORTH PLATTE   CLOUDY    29  19  66 N10G28    30.25R WCI  20
MCCOOK         PTSUNNY   34  19  54 N24G30    30.24R WCI  21

...EASTERN NEBRASKA...

CITY           SKY/WX    TMP DP  RH WIND       PRES   REMARKS
NORFOLK        MIX PCPN  26  21  81 N30G37    30.13R WCI  10
SO SIOUX CITY  CLOUDY    30  25  81 N25       30.09R WCI  16
TEKAMAH        LGT SNOW  33  29  85 N28G35    30.04R FOG     WCI  20
COLUMBUS       CLOUDY    27  19  74 N26G33    30.12R WCI  11
ALBION         CLOUDY    26  19  73 N23G31    30.13R WCI  11
OMAHA EPPLEY   CLOUDY    35  31  85 N28G38    30.00R WCI  22
OFFUTT AFB     CLOUDY    37  32  84 NW16G28   29.98R WCI  27
MILLARD        CLOUDY    37  32  83 NW16G25   29.98R WCI  27
LINCOLN        CLOUDY    32  25  75 NW26G36   30.08R WCI  18
NEBRASKA CITY  FLURRIES  36  29  76 NW24G32   29.98R WCI  24
BEATRICE       CLOUDY    34  28  79 NW26G35   30.06R WCI  20
FALLS CITY     CLOUDY    39  30  70 NW24G37   29.99R WCI  28

...NORTHERN KANSAS...

CITY           SKY/WX    TMP DP  RH WIND       PRES   REMARKS
GOODLAND       CLOUDY    33  29  85 NW15      30.24R WCI  23
HILL CITY      MOSUNNY   36  19  50 N25G37    30.22R WCI  24
NORTON         MOSUNNY   36  18  48 NW29G36   30.21R WCI  23
PHILLIPSBURG   SUNNY     37  23  56 NW25G38   30.19R WCI  26
SMITH CENTER   PTSUNNY   34  21  60 NW25G39   30.17R WCI  21
BELOIT         CLOUDY    37  23  56 NW23G31   30.16R WCI  26
HAYS           MOSUNNY   39  18  41 N22G33    30.19R WCI  29
RUSSELL        MOSUNNY   40  23  50 NW30G40   30.18R WCI  28
CONCORDIA      CLOUDY    36  25  64 NW22G30   30.12R WCI  25
SALINA         MOSUNNY   42  23  46 N32G41    30.12R
TOPEKA         CLOUDY    44  30  57 NW20G29   30.03R



USA.gov is the U.S. government's official web portal to all federal, state and local government web resources and services.